Hourly Data Report for September 03, 2017

All times are specified in Local Standard Time (LST). Add 1 hour to adjust for Daylight Saving Time where and when it is observed.

SAINT JOHN A
NEW BRUNSWICK

45°18'58.000" N
65°53'24.000" W
108.80 m
8104901
71609
YSJ

Download Data

Hourly Data (September 2017)
Hourly Data Report for September 3, 2017
Temp Definition
°C
Dew Point Temp Definition
°C
Rel Hum Definition
%
Wind Dir Definition
10's deg

Wind Spd Definition
km/h
Visibility Definition
km
Stn Press Definition
kPa
Hmdx Definition


Wind Chill Definition


Weather Definition


TIME
00:00 Legend Double Dagger 6.6 6.4 98 7 3 24.1 101.00     LegendNANA
01:00 Legend Double Dagger 5.0 4.8 98 35 4 24.1 101.01     LegendNANA
02:00 Legend Double Dagger 5.0 4.8 99 36 3 24.1 101.03     Mainly Clear
03:00 Legend Double Dagger 3.9 3.8 99 7 4 1.6 101.01     Fog
04:00 Legend Double Dagger 5.0 4.9 99 3 4 3.2 101.03     Fog
05:00 Legend Double Dagger 4.5 4.3 99 36 5 4.8 101.01     Fog
06:00 Legend Double Dagger 3.9 3.8 99 36 1 1.2 101.05     Fog
07:00 Legend Double Dagger 7.9 7.9 99 36 2 4.8 101.09     Fog
08:00 Legend Double Dagger 12.4 11.4 94 15 12 19.3 101.15     Mostly Cloudy
09:00 Legend Double Dagger 13.6 11.6 87 16 9 24.1 101.14     LegendNANA
10:00 Legend Double Dagger 13.8 10.7 81 15 10 24.1 101.07     LegendNANA
11:00 Legend Double Dagger 14.4 10.4 77 14 14 24.1 101.00     Cloudy
12:00 Legend Double Dagger 15.0 10.6 74 13 13 24.1 100.92     LegendNANA
13:00 Legend Double Dagger 15.7 10.2 70 11 13 24.1 100.88     LegendNANA
14:00 Legend Double Dagger 16.3 9.8 65 17 10 24.1 100.84     Mostly Cloudy
15:00 Legend Double Dagger 16.5 9.7 64 14 14 24.1 100.74     LegendNANA
16:00 Legend Double Dagger 15.6 9.9 68 13 15 24.1 100.67     LegendNANA
17:00 Legend Double Dagger 15.3 10.1 71 14 17 24.1 100.57     Mostly Cloudy
18:00 Legend Double Dagger 13.9 10.1 77 13 13 24.1 100.46     LegendNANA
19:00 Legend Double Dagger 13.4 9.7 78 13 18 24.1 100.36     LegendNANA
20:00 Legend Double Dagger 13.5 9.9 79 11 22 24.1 100.20     Cloudy
21:00 Legend Double Dagger 12.9 10.5 85 12 23 24.1 100.09     LegendNANA
22:00 Legend Double Dagger 11.8 11.3 96 11 25 3.2 99.90     Rain,Fog
23:00 Legend Double Dagger 12.1 11.4 96 10 27 2.4 99.66     Moderate Rain,Fog

Notes on Data Quality.

Legend

  • E = Estimated
  • M = Missing
  • NA = Not Available
  • ‡ = Partner data that is not subject to review by the National Climate Archives
Date modified: